AFR598 GQNO-GUCY

Flight info

Callsign AFR598
Flight time N/A
Altitude 41000
Route NO502 DCT BINAD DCT NEVDI DCT KITNI UR865 POGRA POGRA1B
Aircraft A359/H-SDE2E3GHIJ3J4J5LM1ORWXY/LB1D1

Departure

Time 2026-04-30 14:21
Airport Nouakchott–Oumtounsy International Airport (GQNO)

Arrival

Time N/A
Airport Ahmed Sékou Touré International Airport (GUCY)
Time Latitude Longitude Altitude Speed Heading
2026-04-30 13:58 18.30791 -15.96405 14 ft 0 kts 60°
2026-04-30 14:12 18.30784 -15.96418 15 ft 3 kts 60°
2026-04-30 14:12 18.30777 -15.96429 15 ft 3 kts 60°
2026-04-30 14:13 18.30766 -15.96453 17 ft 3 kts 62°
2026-04-30 14:13 18.30758 -15.96470 16 ft 3 kts 71°
2026-04-30 14:13 18.30755 -15.96491 17 ft 3 kts 114°
2026-04-30 14:13 18.30765 -15.96506 17 ft 0 kts 151°
2026-04-30 14:15 18.30764 -15.96506 17 ft 0 kts 151°
2026-04-30 14:15 18.30760 -15.96504 16 ft 3 kts 150°
2026-04-30 14:15 18.30709 -15.96473 14 ft 10 kts 150°
2026-04-30 14:15 18.30651 -15.96441 16 ft 9 kts 165°
2026-04-30 14:16 18.30595 -15.96468 18 ft 10 kts 220°
2026-04-30 14:16 18.30535 -15.96474 21 ft 9 kts 161°
2026-04-30 14:16 18.30472 -15.96439 39 ft 11 kts 150°
2026-04-30 14:16 18.30396 -15.96393 21 ft 14 kts 150°
2026-04-30 14:17 18.30312 -15.96341 23 ft 14 kts 148°
2026-04-30 14:17 18.30223 -15.96286 24 ft 16 kts 151°
2026-04-30 14:17 18.30118 -15.96224 24 ft 19 kts 149°
2026-04-30 14:17 18.30015 -15.96161 22 ft 18 kts 149°
2026-04-30 14:18 18.29902 -15.96091 19 ft 19 kts 149°
2026-04-30 14:18 18.29790 -15.96022 13 ft 19 kts 149°
2026-04-30 14:18 18.29554 -15.95876 13 ft 18 kts 150°
2026-04-30 14:19 18.29342 -15.95748 18 ft 17 kts 150°
2026-04-30 14:19 18.29247 -15.95690 19 ft 16 kts 150°
2026-04-30 14:19 18.29173 -15.95700 19 ft 11 kts 237°
2026-04-30 14:20 18.29128 -15.95776 16 ft 12 kts 239°
2026-04-30 14:20 18.29148 -15.95830 14 ft 4 kts 326°
2026-04-30 14:20 18.29156 -15.95836 14 ft 9 kts 328°
2026-04-30 14:21 18.29446 -15.96013 12 ft 86 kts 330°
2026-04-30 14:21 18.30154 -15.96451 23 ft 148 kts 329°
2026-04-30 14:21 18.32113 -15.97732 1188 ft 178 kts 329°
2026-04-30 14:22 18.33215 -15.98519 1558 ft 205 kts 327°
2026-04-30 14:22 18.34877 -16.01307 2397 ft 260 kts 277°
2026-04-30 14:22 18.34541 -16.03197 3286 ft 265 kts 245°
2026-04-30 14:23 18.31790 -16.05488 5346 ft 262 kts 205°
2026-04-30 14:23 18.28247 -16.06572 6949 ft 268 kts 196°
2026-04-30 14:24 18.24572 -16.07385 8660 ft 272 kts 192°
2026-04-30 14:24 18.22707 -16.07736 9558 ft 273 kts 191°
2026-04-30 14:25 18.18855 -16.08429 10789 ft 299 kts 191°
2026-04-30 14:25 18.14482 -16.09223 11481 ft 335 kts 191°
2026-04-30 14:26 18.09773 -16.10083 12736 ft 350 kts 190°
2026-04-30 14:26 18.07330 -16.10326 13409 ft 354 kts 184°
2026-04-30 14:26 18.02355 -16.10472 14686 ft 362 kts 181°
2026-04-30 14:27 17.99812 -16.10484 15266 ft 367 kts 181°
2026-04-30 14:27 17.97252 -16.10482 15905 ft 369 kts 181°
2026-04-30 14:27 17.94686 -16.10479 16418 ft 376 kts 181°
2026-04-30 14:28 17.89366 -16.10481 17469 ft 387 kts 181°
2026-04-30 14:28 17.86660 -16.10488 18043 ft 391 kts 181°
2026-04-30 14:28 17.83915 -16.10497 18549 ft 396 kts 181°
2026-04-30 14:28 17.81145 -16.10508 19017 ft 401 kts 181°
2026-04-30 14:29 17.75513 -16.10531 20047 ft 408 kts 181°
2026-04-30 14:29 17.69811 -16.10554 21075 ft 416 kts 182°
2026-04-30 14:30 17.61002 -16.10588 22655 ft 427 kts 182°
2026-04-30 14:31 17.55000 -16.10611 23676 ft 435 kts 182°
2026-04-30 14:31 17.48905 -16.10635 24558 ft 442 kts 182°
2026-04-30 14:31 17.45820 -16.10647 25024 ft 445 kts 182°
2026-04-30 14:32 17.39600 -16.10671 25969 ft 452 kts 183°
2026-04-30 14:32 17.36440 -16.10684 26438 ft 456 kts 183°
2026-04-30 14:32 17.33247 -16.10696 26906 ft 460 kts 184°
2026-04-30 14:33 17.30022 -16.10708 27381 ft 463 kts 184°
2026-04-30 14:33 17.23511 -16.10734 28299 ft 471 kts 184°
2026-04-30 14:33 17.20227 -16.10747 28745 ft 474 kts 184°
2026-04-30 14:34 17.16914 -16.10760 29186 ft 478 kts 184°
2026-04-30 14:34 17.13572 -16.10773 29612 ft 482 kts 184°
2026-04-30 14:34 17.10209 -16.10785 30034 ft 485 kts 185°
2026-04-30 14:34 17.06863 -16.10798 30355 ft 489 kts 185°
2026-04-30 14:35 17.00011 -16.10823 31092 ft 494 kts 184°
2026-04-30 14:35 16.96568 -16.10835 31492 ft 496 kts 184°
2026-04-30 14:35 16.93115 -16.10847 31885 ft 497 kts 184°
2026-04-30 14:36 16.89644 -16.10860 32250 ft 499 kts 184°
2026-04-30 14:36 16.86170 -16.10873 32605 ft 500 kts 185°
2026-04-30 14:36 16.82682 -16.10886 32949 ft 502 kts 185°
2026-04-30 14:36 16.79176 -16.10899 33277 ft 504 kts 184°
2026-04-30 14:37 16.75657 -16.10913 33585 ft 506 kts 185°
2026-04-30 14:37 16.72133 -16.10926 33875 ft 508 kts 184°
2026-04-30 14:37 16.68596 -16.10939 34184 ft 508 kts 184°
2026-04-30 14:37 16.65071 -16.10951 34585 ft 506 kts 184°
2026-04-30 14:38 16.61563 -16.10963 35014 ft 503 kts 184°
2026-04-30 14:38 16.58114 -16.10964 35412 ft 501 kts 183°
2026-04-30 14:38 16.54626 -16.10670 35786 ft 504 kts 175°
2026-04-30 14:38 16.51195 -16.09865 36149 ft 508 kts 166°
2026-04-30 14:39 16.47902 -16.08494 36466 ft 512 kts 157°
2026-04-30 14:39 16.44757 -16.06724 36801 ft 513 kts 154°
2026-04-30 14:39 16.41671 -16.04838 36939 ft 515 kts 153°
2026-04-30 14:40 16.32544 -15.98997 36949 ft 513 kts 152°
2026-04-30 14:40 16.26491 -15.95149 36943 ft 513 kts 152°
2026-04-30 14:41 16.20385 -15.91308 36942 ft 513 kts 153°
2026-04-30 14:41 16.14270 -15.87477 36940 ft 513 kts 153°
2026-04-30 14:42 16.08148 -15.83644 36930 ft 513 kts 153°
2026-04-30 14:42 16.02049 -15.79825 36938 ft 511 kts 153°
2026-04-30 14:43 15.95960 -15.76016 36933 ft 511 kts 153°
2026-04-30 14:43 15.89863 -15.72204 36931 ft 511 kts 153°
2026-04-30 14:44 15.83775 -15.68401 36933 ft 511 kts 153°
2026-04-30 14:44 15.77718 -15.64620 36933 ft 511 kts 153°
2026-04-30 14:45 15.71636 -15.60825 36927 ft 509 kts 153°
2026-04-30 14:45 15.65576 -15.57047 36927 ft 507 kts 153°
2026-04-30 14:46 15.59528 -15.53279 36925 ft 507 kts 153°
2026-04-30 14:46 15.53475 -15.49511 36923 ft 507 kts 153°
2026-04-30 14:47 15.47421 -15.45745 36926 ft 507 kts 153°
2026-04-30 14:47 15.41368 -15.41982 36921 ft 506 kts 153°
2026-04-30 14:48 15.35331 -15.38231 36920 ft 505 kts 153°
2026-04-30 14:48 15.29301 -15.34487 36917 ft 505 kts 153°
2026-04-30 14:49 15.23273 -15.30747 36922 ft 505 kts 153°
2026-04-30 14:49 15.17279 -15.27031 36919 ft 505 kts 153°
2026-04-30 14:50 15.08234 -15.21428 36912 ft 505 kts 152°
2026-04-30 14:51 14.99178 -15.15824 36915 ft 505 kts 152°
2026-04-30 14:52 14.90130 -15.10230 36912 ft 505 kts 152°
2026-04-30 14:52 14.81117 -15.04663 36908 ft 505 kts 153°
2026-04-30 14:53 14.74862 -15.01443 36907 ft 499 kts 165°
2026-04-30 14:53 14.71559 -15.00377 36910 ft 497 kts 167°
2026-04-30 14:54 14.58206 -14.96679 36905 ft 496 kts 169°
2026-04-30 14:55 14.48177 -14.93958 36902 ft 497 kts 168°
2026-04-30 14:56 14.34853 -14.90306 36900 ft 495 kts 168°
2026-04-30 14:57 14.24868 -14.87570 36903 ft 495 kts 168°
2026-04-30 14:58 14.11540 -14.83924 36896 ft 495 kts 168°
2026-04-30 14:58 14.01598 -14.81209 36895 ft 495 kts 168°
2026-04-30 15:00 13.84930 -14.76658 36893 ft 495 kts 168°
2026-04-30 15:01 13.71655 -14.73039 36904 ft 494 kts 168°
2026-04-30 15:01 13.61714 -14.70331 36899 ft 492 kts 168°
2026-04-30 15:02 13.56206 -14.68833 36888 ft 492 kts 168°
2026-04-30 15:03 13.39640 -14.64329 36894 ft 492 kts 168°
2026-04-30 15:04 13.23179 -14.59860 36894 ft 490 kts 168°
2026-04-30 15:06 13.06686 -14.55389 36888 ft 490 kts 167°
2026-04-30 15:07 12.93506 -14.51820 36893 ft 489 kts 167°
2026-04-30 15:08 12.80326 -14.48255 36891 ft 489 kts 167°
2026-04-30 15:09 12.63903 -14.43818 36890 ft 490 kts 167°
2026-04-30 15:10 12.50712 -14.40260 36885 ft 490 kts 167°
2026-04-30 15:11 12.30928 -14.34929 36881 ft 490 kts 167°
2026-04-30 15:13 12.14478 -14.30503 36886 ft 490 kts 167°
2026-04-30 15:14 11.91381 -14.24298 36888 ft 490 kts 167°
2026-04-30 15:17 11.61929 -14.15779 36886 ft 491 kts 160°
2026-04-30 15:19 11.36492 -14.05505 36014 ft 492 kts 160°